Location: Gleizolles
(44.4833°N, 6.7667°E)
Time: 19:27:30
(UTC+00:00)

Vanguard 3 - Visible Passes

Search period start: 12 June 2025 00:00
Search period end: 22 June 2025 00:00
Orbit: 508 x 3215 km, 33.3° (Epoch: 12 June)

Date Brightness Start Highest point End Pass type
(mag) Time Alt. Az. Time Alt. Az. Time Alt. Az.
12 Jun 9.5 00:21:35 10° W 00:37:56 46° SSW 00:48:35 10° SE visible
12 Jun 9.8 02:39:51 10° W 02:48:56 20° SW 02:55:36 10° S visible
12 Jun 10.0 20:42:56 10° WSW 21:01:32 54° SSE 21:17:12 10° E visible
12 Jun 9.7 22:57:45 10° W 23:16:07 55° S 23:28:58 10° ESE visible
13 Jun 9.6 01:14:37 10° W 01:28:45 34° SW 01:38:13 10° SSE visible
13 Jun 9.9 21:34:34 10° WSW 21:53:32 58° S 22:08:32 10° ESE visible
13 Jun 9.7 23:50:19 10° W 00:07:35 47° SSW 00:19:22 10° SE visible
14 Jun 9.9 02:08:31 10° W 02:18:58 22° SW 02:26:39 10° S visible
14 Jun 10.1 20:12:18 10° WSW 20:30:33 55° SSE 20:47:17 10° E visible
14 Jun 9.8 22:26:41 10° W 22:45:26 55° S 22:59:30 10° ESE visible
15 Jun 9.8 00:43:17 10° W 00:58:30 36° SW 01:09:03 10° SSE visible
15 Jun 10.2 03:06:55 10° WSW 03:08:41 10° SW 03:10:20 10° SW visible
15 Jun 10.0 21:03:49 10° WSW 21:22:36 58° S 21:38:45 10° ESE visible
15 Jun 9.8 23:19:08 10° W 23:37:00 48° SSW 23:49:58 10° SE visible
16 Jun 10.1 01:37:09 10° W 01:48:49 23° SW 01:57:31 10° S visible
16 Jun 10.2 19:41:53 10° WSW 19:59:30 56° SSE 20:17:08 10° E visible
16 Jun 9.9 21:55:47 10° W 22:14:36 56° S 22:29:50 10° ESE visible
17 Jun 9.9 00:12:02 10° W 00:28:03 37° SW 00:37:02 19° SSE visible
17 Jun 10.3 02:34:29 10° WSW 02:38:38 12° SW 02:40:40 11° SW visible
17 Jun 10.1 20:33:16 10° WSW 20:51:35 59° S 21:08:45 10° ESE visible
17 Jun 9.9 22:48:06 10° W 23:06:16 48° SSW 23:18:11 17° SE visible
18 Jun 10.0 01:05:50 10° W 01:18:30 24° SW 01:21:59 22° SSW visible
18 Jun 10.0 21:25:05 10° W 21:43:38 56° S 21:59:58 10° ESE visible
18 Jun 10.0 23:40:53 10° W 23:57:26 37° SSW 00:04:13 27° S visible
19 Jun 10.6 02:02:44 10° WSW 02:08:04 13° SW 02:08:04 13° SW visible
19 Jun 10.1 20:02:57 10° WSW 20:20:31 59° S 20:38:32 10° ESE visible
19 Jun 10.1 22:17:15 10° W 22:35:23 49° SSW 22:46:48 22° SE visible
20 Jun 10.2 00:34:36 10° W 00:48:00 25° SW 00:50:41 24° SSW visible
20 Jun 10.1 20:54:36 10° W 21:12:35 56° S 21:29:35 11° ESE visible
20 Jun 10.1 23:09:54 10° W 23:26:40 38° SSW 23:33:30 29° S visible
21 Jun 10.7 01:31:16 10° WSW 01:37:23 13° SW 01:37:23 13° SW visible
21 Jun 10.2 19:32:50 10° WSW 19:49:27 59° S 20:08:04 10° ESE visible
21 Jun 10.2 21:46:37 10° W 22:04:25 49° SSW 22:16:26 22° SE visible
